| time (UTC) | temp C | wind direction | speed KPH | gust KPH | rain 1hr cm | rain 24hr cm | rain mn cm | humidity % | barometer mb |
| 20260504081016 | 8 | 0.0 | 0.0 | 0.00 | 0.00 | 0.00 | 73 | 1038.1 | |
| 20260504050019 | 7 | 0.0 | 0.0 | 0.00 | 0.00 | 0.00 | 69 | 1038.3 | |
| 20260504045035 | 7 | 0.0 | 0.0 | 0.00 | 0.00 | 0.00 | 68 | 1038.4 | |
| 20260504044032 | 7 | 0.0 | 0.0 | 0.00 | 0.00 | 0.00 | 67 | 1038.3 | |
| 20260504043026 | 7 | 0.0 | 0.0 | 0.00 | 0.00 | 0.00 | 67 | 1038.4 | |
| 20260504042022 | 7 | 0.0 | 0.0 | 0.00 | 0.00 | 0.00 | 67 | 1038.3 | |
| 20260504041018 | 7 | 0.0 | 0.0 | 0.00 | 0.00 | 0.00 | 67 | 1038.3 | |
| 20260504040034 | 7 | 0.0 | 0.0 | 0.00 | 0.00 | 0.00 | 65 | 1038.4 | |
| 20260504035030 | 8 | 0.0 | 0.0 | 0.00 | 0.00 | 0.00 | 64 | 1038.3 | |
| 20260504034027 | 8 | 281 | 0.0 | 1.6 | 0.00 | 0.00 | 0.00 | 63 | 1038.2 |
| 20260504033022 | 8 | 0.0 | 0.0 | 0.00 | 0.00 | 0.00 | 63 | 1038.2 | |
| 20260504032016 | 8 | 0.0 | 0.0 | 0.00 | 0.00 | 0.00 | 61 | 1038.0 | |
| 20260504031031 | 8 | 0.0 | 0.0 | 0.00 | 0.00 | 0.00 | 59 | 1037.9 | |
| 20260504030046 | 8 | 0.0 | 0.0 | 0.00 | 0.00 | 0.00 | 58 | 1037.9 | |
| 20260504025022 | 9 | 0.0 | 0.0 | 0.00 | 0.00 | 0.00 | 56 | 1037.8 | |
| 20260504024017 | 9 | 0.0 | 0.0 | 0.00 | 0.00 | 0.00 | 55 | 1037.7 | |
| 20260504023054 | 9 | 0.0 | 0.0 | 0.00 | 0.00 | 0.00 | 54 | 1037.8 | |
| 20260504022051 | 10 | 0.0 | 0.0 | 0.00 | 0.00 | 0.00 | 54 | 1037.6 | |
| 20260504021026 | 10 | 302 | 0.0 | 1.6 | 0.00 | 0.00 | 0.00 | 52 | 1037.7 |
| 20260504020021 | 10 | 290 | 1.6 | 3.2 | 0.00 | 0.00 | 0.00 | 51 | 1037.6 |
| 20260504015018 | 10 | 0.0 | 0.0 | 0.00 | 0.00 | 0.00 | 49 | 1037.5 | |
| 20260504014033 | 11 | 0.0 | 0.0 | 0.00 | 0.00 | 0.00 | 49 | 1037.5 | |
| 20260504013029 | 11 | 0.0 | 0.0 | 0.00 | 0.00 | 0.00 | 46 | 1037.4 | |
| 20260504012045 | 11 | 0.0 | 0.0 | 0.00 | 0.00 | 0.00 | 46 | 1037.4 | |
| 20260504011021 | 12 | 0.0 | 0.0 | 0.00 | 0.00 | 0.00 | 45 | 1037.3 | |
| 20260504010017 | 12 | 0.0 | 0.0 | 0.00 | 0.00 | 0.00 | 44 | 1037.2 | |
| 20260504005034 | 12 | 0.0 | 0.0 | 0.00 | 0.00 | 0.00 | 42 | 1037.3 | |
| 20260504004030 | 12 | 0.0 | 0.0 | 0.00 | 0.00 | 0.00 | 40 | 1037.1 | |
| 20260504003025 | 13 | 0.0 | 0.0 | 0.00 | 0.00 | 0.00 | 39 | 1037.0 | |
| 20260504002022 | 13 | 234 | 0.0 | 1.6 | 0.00 | 0.00 | 0.00 | 37 | 1036.8 |
| 20260504001037 | 14 | 261 | 0.0 | 3.2 | 0.00 | 0.00 | 0.00 | 35 | 1036.8 |
| 20260504000034 | 15 | 270 | 0.0 | 1.6 | 0.00 | 0.00 | 0.00 | 34 | 1036.7 |
| 20260503235031 | 15 | 232 | 1.6 | 3.2 | 0.00 | 0.00 | 0.00 | 34 | 1036.6 |
| 20260503234026 | 15 | 261 | 4.8 | 11.3 | 0.00 | 0.00 | 0.00 | 33 | 1036.6 |
| 20260503233022 | 15 | 246 | 3.2 | 11.3 | 0.00 | 0.00 | 0.00 | 33 | 1036.5 |
| 20260503232019 | 16 | 277 | 4.8 | 11.3 | 0.00 | 0.00 | 0.00 | 32 | 1036.5 |
| 20260503231035 | 16 | 277 | 1.6 | 6.4 | 0.00 | 0.00 | 0.00 | 32 | 1036.4 |
| 20260503230031 | 16 | 303 | 4.8 | 12.9 | 0.00 | 0.00 | 0.00 | 31 | 1036.5 |
| 20260503225027 | 16 | 255 | 6.4 | 17.7 | 0.00 | 0.00 | 0.00 | 31 | 1036.5 |
| 20260503224023 | 16 | 273 | 8.0 | 12.9 | 0.00 | 0.00 | 0.00 | 31 | 1036.5 |
| 20260503223019 | 16 | 279 | 8.0 | 17.7 | 0.00 | 0.00 | 0.00 | 31 | 1036.6 |
| 20260503222035 | 16 | 255 | 6.4 | 17.7 | 0.00 | 0.00 | 0.00 | 31 | 1036.6 |
| 20260503221031 | 16 | 280 | 8.0 | 14.5 | 0.00 | 0.00 | 0.00 | 31 | 1036.6 |
| 20260503220027 | 16 | 266 | 6.4 | 17.7 | 0.00 | 0.00 | 0.00 | 31 | 1036.7 |
| 20260503215024 | 16 | 292 | 8.0 | 22.5 | 0.00 | 0.00 | 0.00 | 31 | 1036.7 |
| 20260503214041 | 16 | 259 | 8.0 | 25.7 | 0.00 | 0.00 | 0.00 | 31 | 1036.7 |
| 20260503213016 | 16 | 305 | 12.9 | 22.5 | 0.00 | 0.00 | 0.00 | 31 | 1036.8 |
| 20260503212052 | 16 | 265 | 8.0 | 22.5 | 0.00 | 0.00 | 0.00 | 31 | 1036.6 |
| 20260503211028 | 16 | 312 | 6.4 | 20.9 | 0.00 | 0.00 | 0.00 | 31 | 1036.8 |
| 20260503210024 | 16 | 289 | 8.0 | 17.7 | 0.00 | 0.00 | 0.00 | 32 | 1036.8 |
| 20260503205021 | 16 | 277 | 11.3 | 25.7 | 0.00 | 0.00 | 0.00 | 31 | 1036.7 |
| 20260503204017 | 16 | 276 | 8.0 | 20.9 | 0.00 | 0.00 | 0.00 | 31 | 1036.7 |
| 20260503201529 | 16 | 293 | 4.8 | 14.5 | 0.00 | 0.00 | 0.00 | 33 | 1037.2 |
| 20260503201032 | 16 | 287 | 14.5 | 25.7 | 0.00 | 0.00 | 0.00 | 33 | 1037.1 |